Year,Month,Day,Hour,Minute,Value (Times are PST for temperature in C)
2010,08,18,00,00,18.50
2010,08,18,00,01,18.50
2010,08,18,00,02,18.40
2010,08,18,00,03,18.30
2010,08,18,00,04,18.30
2010,08,18,00,05,18.20
2010,08,18,00,06,18.20
2010,08,18,00,07,18.20
2010,08,18,00,08,18.20
2010,08,18,00,09,18.10
2010,08,18,00,10,18.10
2010,08,18,00,11,18.10
2010,08,18,00,12,18.00
2010,08,18,00,13,18.00
2010,08,18,00,14,17.90
2010,08,18,00,15,17.90
2010,08,18,00,16,17.90
2010,08,18,00,17,17.90
2010,08,18,00,18,17.90
2010,08,18,00,19,17.90
2010,08,18,00,20,17.90
2010,08,18,00,21,17.90
2010,08,18,00,22,17.90
2010,08,18,00,23,17.90
2010,08,18,00,24,18.00
2010,08,18,00,25,18.10
2010,08,18,00,26,18.20
2010,08,18,00,27,18.20
2010,08,18,00,28,18.10
2010,08,18,00,29,18.00
2010,08,18,00,30,17.90
2010,08,18,00,31,17.80
2010,08,18,00,32,17.80
2010,08,18,00,33,17.70
2010,08,18,00,34,17.70
2010,08,18,00,35,17.60
2010,08,18,00,36,17.60
2010,08,18,00,37,17.60
2010,08,18,00,38,17.50
2010,08,18,00,39,17.50
2010,08,18,00,40,17.50
2010,08,18,00,41,17.50
2010,08,18,00,42,17.50
2010,08,18,00,43,17.60
2010,08,18,00,44,17.60
2010,08,18,00,45,17.60
2010,08,18,00,46,17.70
2010,08,18,00,47,17.80
2010,08,18,00,48,17.80
2010,08,18,00,49,17.80
2010,08,18,00,50,17.90
2010,08,18,00,51,17.90
2010,08,18,00,52,17.90
2010,08,18,00,53,18.00
2010,08,18,00,54,18.00
2010,08,18,00,55,18.00
2010,08,18,00,56,18.10
2010,08,18,00,57,18.10
2010,08,18,00,58,18.10
2010,08,18,00,59,18.10
2010,08,18,01,00,18.20
2010,08,18,01,01,18.20
2010,08,18,01,02,18.20
2010,08,18,01,03,18.20
2010,08,18,01,04,18.20
2010,08,18,01,05,18.20
2010,08,18,01,06,18.20
2010,08,18,01,07,18.20
2010,08,18,01,08,18.20
2010,08,18,01,09,18.20
2010,08,18,01,10,18.20
2010,08,18,01,11,18.20
2010,08,18,01,12,18.20
2010,08,18,01,13,18.20
2010,08,18,01,14,18.20
2010,08,18,01,15,18.20
2010,08,18,01,16,18.30
2010,08,18,01,17,18.30
2010,08,18,01,18,18.30
2010,08,18,01,19,18.30
2010,08,18,01,20,18.30
2010,08,18,01,21,18.30
2010,08,18,01,22,18.30
2010,08,18,01,23,18.30
2010,08,18,01,24,18.30
2010,08,18,01,25,18.30
2010,08,18,01,26,18.30
2010,08,18,01,27,18.30
2010,08,18,01,28,18.30
2010,08,18,01,29,18.30
2010,08,18,01,30,18.30
2010,08,18,01,31,18.30
2010,08,18,01,32,18.30
2010,08,18,01,33,18.30
2010,08,18,01,34,18.30
2010,08,18,01,35,18.30
2010,08,18,01,36,18.20
2010,08,18,01,37,18.20
2010,08,18,01,38,18.20
2010,08,18,01,39,18.20
2010,08,18,01,40,18.20
2010,08,18,01,41,18.20
2010,08,18,01,42,18.20
2010,08,18,01,43,18.20
2010,08,18,01,44,18.30
2010,08,18,01,45,18.40
2010,08,18,01,46,18.60
2010,08,18,01,47,18.70
2010,08,18,01,48,18.80
2010,08,18,01,49,19.00
2010,08,18,01,50,19.20
2010,08,18,01,51,19.40
2010,08,18,01,52,19.50
2010,08,18,01,53,19.60
2010,08,18,01,54,19.70
2010,08,18,01,55,19.70
2010,08,18,01,56,19.80
2010,08,18,01,57,19.80
2010,08,18,01,58,19.90
2010,08,18,01,59,19.90
2010,08,18,02,00,20.00
2010,08,18,02,01,20.10
2010,08,18,02,02,20.20
2010,08,18,02,03,20.20
2010,08,18,02,04,20.20
2010,08,18,02,05,20.30
2010,08,18,02,06,20.30
2010,08,18,02,07,20.30
2010,08,18,02,08,20.30
2010,08,18,02,09,20.20
2010,08,18,02,10,20.10
2010,08,18,02,11,20.00
2010,08,18,02,12,19.80
2010,08,18,02,13,19.60
2010,08,18,02,14,19.40
2010,08,18,02,15,19.20
2010,08,18,02,16,19.10
2010,08,18,02,17,18.90
2010,08,18,02,18,18.80
2010,08,18,02,19,18.60
2010,08,18,02,20,18.50
2010,08,18,02,21,18.40
2010,08,18,02,22,18.30
2010,08,18,02,23,18.20
2010,08,18,02,24,18.10
2010,08,18,02,25,18.10
2010,08,18,02,26,18.00
2010,08,18,02,27,17.90
2010,08,18,02,28,17.80
2010,08,18,02,29,17.70
2010,08,18,02,30,17.70
2010,08,18,02,31,17.60
2010,08,18,02,32,17.50
2010,08,18,02,33,17.50
2010,08,18,02,34,17.40
2010,08,18,02,35,17.40
2010,08,18,02,36,17.30
2010,08,18,02,37,17.30
2010,08,18,02,38,17.20
2010,08,18,02,39,17.20
2010,08,18,02,40,17.20
2010,08,18,02,41,17.10
2010,08,18,02,42,17.10
2010,08,18,02,43,17.10
2010,08,18,02,44,17.00
2010,08,18,02,45,17.00
2010,08,18,02,46,16.90
2010,08,18,02,47,16.90
2010,08,18,02,48,16.90
2010,08,18,02,49,16.80
2010,08,18,02,50,16.80
2010,08,18,02,51,16.80
2010,08,18,02,52,16.70
2010,08,18,02,53,16.70
2010,08,18,02,54,16.70
2010,08,18,02,55,16.60
2010,08,18,02,56,16.60
2010,08,18,02,57,16.60
2010,08,18,02,58,16.50
2010,08,18,02,59,16.50
2010,08,18,03,00,16.50
2010,08,18,03,01,16.40
2010,08,18,03,02,16.40
2010,08,18,03,03,16.40
2010,08,18,03,04,16.30
2010,08,18,03,05,16.30
2010,08,18,03,06,16.30
2010,08,18,03,07,16.30
2010,08,18,03,08,16.20
2010,08,18,03,09,16.20
2010,08,18,03,10,16.20
2010,08,18,03,11,16.20
2010,08,18,03,12,16.10
2010,08,18,03,13,16.10
2010,08,18,03,14,16.10
2010,08,18,03,15,16.10
2010,08,18,03,16,16.10
2010,08,18,03,17,16.10
2010,08,18,03,18,16.00
2010,08,18,03,19,16.00
2010,08,18,03,20,16.00
2010,08,18,03,21,16.00
2010,08,18,03,22,16.00
2010,08,18,03,23,15.90
2010,08,18,03,24,15.90
2010,08,18,03,25,15.90
2010,08,18,03,26,15.90
2010,08,18,03,27,15.90
2010,08,18,03,28,15.90
2010,08,18,03,29,15.90
2010,08,18,03,30,15.80
2010,08,18,03,31,15.90
2010,08,18,03,32,15.90
2010,08,18,03,33,15.90
2010,08,18,03,34,15.90
2010,08,18,03,35,15.90
2010,08,18,03,36,16.00
2010,08,18,03,37,16.00
2010,08,18,03,38,16.10
2010,08,18,03,39,16.10
2010,08,18,03,40,16.10
2010,08,18,03,41,16.20
2010,08,18,03,42,16.20
2010,08,18,03,43,16.20
2010,08,18,03,44,16.20
2010,08,18,03,45,16.10
2010,08,18,03,46,16.10
2010,08,18,03,47,16.10
2010,08,18,03,48,16.10
2010,08,18,03,49,16.10
2010,08,18,03,50,16.10
2010,08,18,03,51,16.10
2010,08,18,03,52,16.10
2010,08,18,03,53,16.10
2010,08,18,03,54,16.10
2010,08,18,03,55,16.10
2010,08,18,03,56,16.00
2010,08,18,03,57,16.00
2010,08,18,03,58,15.90
2010,08,18,03,59,15.90
2010,08,18,04,00,15.90
2010,08,18,04,01,15.90
2010,08,18,04,02,15.80
2010,08,18,04,03,15.80
2010,08,18,04,04,15.80
2010,08,18,04,05,15.80
2010,08,18,04,06,15.70
2010,08,18,04,07,15.70
2010,08,18,04,08,15.70
2010,08,18,04,09,15.60
2010,08,18,04,10,15.60
2010,08,18,04,11,15.50
2010,08,18,04,12,15.50
2010,08,18,04,13,15.40
2010,08,18,04,14,15.40
2010,08,18,04,15,15.40
2010,08,18,04,16,15.30
2010,08,18,04,17,15.30
2010,08,18,04,18,15.30
2010,08,18,04,19,15.30
2010,08,18,04,20,15.20
2010,08,18,04,21,15.20
2010,08,18,04,22,15.20
2010,08,18,04,23,15.10
2010,08,18,04,24,15.00
2010,08,18,04,25,15.00
2010,08,18,04,26,15.00
2010,08,18,04,27,15.00
2010,08,18,04,28,15.00
2010,08,18,04,29,15.00
2010,08,18,04,30,15.00
2010,08,18,04,31,15.00
2010,08,18,04,32,15.00
2010,08,18,04,33,15.00
2010,08,18,04,34,15.00
2010,08,18,04,35,15.00
2010,08,18,04,36,15.00
2010,08,18,04,37,15.00
2010,08,18,04,38,15.00
2010,08,18,04,39,15.00
2010,08,18,04,40,15.00
2010,08,18,04,41,15.00
2010,08,18,04,42,15.00
2010,08,18,04,43,15.00
2010,08,18,04,44,14.90
2010,08,18,04,45,15.00
2010,08,18,04,46,15.00
2010,08,18,04,47,15.00
2010,08,18,04,48,15.00
2010,08,18,04,49,15.00
2010,08,18,04,50,15.00
2010,08,18,04,51,14.90
2010,08,18,04,52,14.90
2010,08,18,04,53,14.90
2010,08,18,04,54,14.90
2010,08,18,04,55,14.90
2010,08,18,04,56,14.80
2010,08,18,04,57,14.80
2010,08,18,04,58,14.80
2010,08,18,04,59,14.80
2010,08,18,05,00,14.80
2010,08,18,05,01,14.80
2010,08,18,05,02,14.80
2010,08,18,05,03,14.70
2010,08,18,05,04,14.70
2010,08,18,05,05,14.70
2010,08,18,05,06,14.70
2010,08,18,05,07,14.60
2010,08,18,05,08,14.60
2010,08,18,05,09,14.60
2010,08,18,05,10,14.50
2010,08,18,05,11,14.50
2010,08,18,05,12,14.50
2010,08,18,05,13,14.40
2010,08,18,05,14,14.40
2010,08,18,05,15,14.40
2010,08,18,05,16,14.30
2010,08,18,05,17,14.30
2010,08,18,05,18,14.30
2010,08,18,05,19,14.30
2010,08,18,05,20,14.30
2010,08,18,05,21,14.30
2010,08,18,05,22,14.20
2010,08,18,05,23,14.20
2010,08,18,05,24,14.20
2010,08,18,05,25,14.20
2010,08,18,05,26,14.20
2010,08,18,05,27,14.20
2010,08,18,05,28,14.20
2010,08,18,05,29,14.20
2010,08,18,05,30,14.20
2010,08,18,05,31,14.20
2010,08,18,05,32,14.20
2010,08,18,05,33,14.20
2010,08,18,05,34,14.20
2010,08,18,05,35,14.20
2010,08,18,05,36,14.20
2010,08,18,05,37,14.20
2010,08,18,05,38,14.20
2010,08,18,05,39,14.20
2010,08,18,05,40,14.20
2010,08,18,05,41,14.20
2010,08,18,05,42,14.20
2010,08,18,05,43,14.20
2010,08,18,05,44,14.20
2010,08,18,05,45,14.20
2010,08,18,05,46,14.20
2010,08,18,05,47,14.20
2010,08,18,05,48,14.20
2010,08,18,05,49,14.20
2010,08,18,05,50,14.20
2010,08,18,05,51,14.20
2010,08,18,05,52,14.10
2010,08,18,05,53,14.10
2010,08,18,05,54,14.10
2010,08,18,05,55,14.10
2010,08,18,05,56,14.10
2010,08,18,05,57,14.10
2010,08,18,05,58,14.10
2010,08,18,05,59,14.10
2010,08,18,06,00,14.10
2010,08,18,06,01,14.10
2010,08,18,06,02,14.10
2010,08,18,06,03,14.00
2010,08,18,06,04,14.00
2010,08,18,06,05,14.00
2010,08,18,06,06,14.00
2010,08,18,06,07,14.00
2010,08,18,06,08,14.00
2010,08,18,06,09,14.00
2010,08,18,06,10,14.00
2010,08,18,06,11,14.00
2010,08,18,06,12,14.00
2010,08,18,06,13,14.00
2010,08,18,06,14,13.90
2010,08,18,06,15,13.90
2010,08,18,06,16,13.90
2010,08,18,06,17,13.90
2010,08,18,06,18,13.90
2010,08,18,06,19,13.90
2010,08,18,06,20,13.90
2010,08,18,06,21,13.90
2010,08,18,06,22,13.90
2010,08,18,06,23,13.90
2010,08,18,06,24,13.90
2010,08,18,06,25,13.90
2010,08,18,06,26,13.90
2010,08,18,06,27,13.90
2010,08,18,06,28,13.90
2010,08,18,06,29,13.90
2010,08,18,06,30,13.90
2010,08,18,06,31,13.90
2010,08,18,06,32,13.90
2010,08,18,06,33,13.90
2010,08,18,06,34,13.90
2010,08,18,06,35,13.90
2010,08,18,06,36,13.90
2010,08,18,06,37,13.90
2010,08,18,06,38,13.80
2010,08,18,06,39,13.80
2010,08,18,06,40,13.90
2010,08,18,06,41,13.90
2010,08,18,06,42,13.90
2010,08,18,06,43,13.90
2010,08,18,06,44,13.90
2010,08,18,06,45,13.90
2010,08,18,06,46,13.90
2010,08,18,06,47,13.90
2010,08,18,06,48,13.90
2010,08,18,06,49,13.90
2010,08,18,06,50,13.90
2010,08,18,06,51,13.90
2010,08,18,06,52,13.90
2010,08,18,06,53,13.90
2010,08,18,06,54,14.00
2010,08,18,06,55,14.10
2010,08,18,06,56,14.10
2010,08,18,06,57,14.20
2010,08,18,06,58,14.20
2010,08,18,06,59,14.20
2010,08,18,07,00,14.30
2010,08,18,07,01,14.30
2010,08,18,07,02,14.30
2010,08,18,07,03,14.40
2010,08,18,07,04,14.40
2010,08,18,07,05,14.50
2010,08,18,07,06,14.60
2010,08,18,07,07,14.60
2010,08,18,07,08,14.70
2010,08,18,07,09,14.70
2010,08,18,07,10,14.80
2010,08,18,07,11,14.90
2010,08,18,07,12,15.00
2010,08,18,07,13,15.00
2010,08,18,07,14,15.00
2010,08,18,07,15,15.00
2010,08,18,07,16,15.00
2010,08,18,07,17,15.00
2010,08,18,07,18,15.10
2010,08,18,07,19,15.20
2010,08,18,07,20,15.30
2010,08,18,07,21,15.30
2010,08,18,07,22,15.40
2010,08,18,07,23,15.40
2010,08,18,07,24,15.50
2010,08,18,07,25,15.50
2010,08,18,07,26,15.60
2010,08,18,07,27,15.70
2010,08,18,07,28,15.80
2010,08,18,07,29,15.80
2010,08,18,07,30,15.90
2010,08,18,07,31,15.90
2010,08,18,07,32,16.00
2010,08,18,07,33,16.10
2010,08,18,07,34,16.20
2010,08,18,07,35,16.30
2010,08,18,07,36,16.30
2010,08,18,07,37,16.40
2010,08,18,07,38,16.50
2010,08,18,07,39,16.60
2010,08,18,07,40,16.70
2010,08,18,07,41,16.70
2010,08,18,07,42,16.80
2010,08,18,07,43,16.90
2010,08,18,07,44,16.90
2010,08,18,07,45,17.00
2010,08,18,07,46,17.00
2010,08,18,07,47,17.10
2010,08,18,07,48,17.10
2010,08,18,07,49,17.10
2010,08,18,07,50,17.10
2010,08,18,07,51,17.10
2010,08,18,07,52,17.10
2010,08,18,07,53,17.10
2010,08,18,07,54,17.10
2010,08,18,07,55,17.10
2010,08,18,07,56,17.10
2010,08,18,07,57,17.10
2010,08,18,07,58,17.20
2010,08,18,07,59,17.20
2010,08,18,08,00,17.20
2010,08,18,08,01,17.30
2010,08,18,08,02,17.30
2010,08,18,08,03,17.30
2010,08,18,08,04,17.30
2010,08,18,08,05,17.40
2010,08,18,08,06,17.40
2010,08,18,08,07,17.40
2010,08,18,08,08,17.50
2010,08,18,08,09,17.60
2010,08,18,08,10,17.60
2010,08,18,08,11,17.70
2010,08,18,08,12,17.70
2010,08,18,08,13,17.70
2010,08,18,08,14,17.80
2010,08,18,08,15,17.80
2010,08,18,08,16,17.80
2010,08,18,08,17,17.80
2010,08,18,08,18,17.80
2010,08,18,08,19,17.90
2010,08,18,08,20,17.90
2010,08,18,08,21,17.80
2010,08,18,08,22,17.80
2010,08,18,08,23,17.80
2010,08,18,08,24,17.80
2010,08,18,08,25,17.80
2010,08,18,08,26,17.90
2010,08,18,08,27,17.90
2010,08,18,08,28,18.00
2010,08,18,08,29,18.10
2010,08,18,08,30,18.20
2010,08,18,08,31,18.20
2010,08,18,08,32,18.20
2010,08,18,08,33,18.20
2010,08,18,08,34,18.20
2010,08,18,08,35,18.20
2010,08,18,08,36,18.20
2010,08,18,08,37,18.10
2010,08,18,08,38,18.10
2010,08,18,08,39,18.00
2010,08,18,08,40,17.90
2010,08,18,08,41,17.90
2010,08,18,08,42,17.90
2010,08,18,08,43,17.90
2010,08,18,08,44,18.00
2010,08,18,08,45,18.00
2010,08,18,08,46,18.00
2010,08,18,08,47,17.90
2010,08,18,08,48,18.00
2010,08,18,08,49,18.00
2010,08,18,08,50,18.00
2010,08,18,08,51,18.00
2010,08,18,08,52,18.00
2010,08,18,08,53,18.00
2010,08,18,08,54,18.00
2010,08,18,08,55,18.00
2010,08,18,08,56,18.10
2010,08,18,08,57,18.10
2010,08,18,08,58,18.10
2010,08,18,08,59,18.10
2010,08,18,09,00,18.10
2010,08,18,09,01,18.10
2010,08,18,09,02,18.10
2010,08,18,09,03,18.20
2010,08,18,09,04,18.20
2010,08,18,09,05,18.30
2010,08,18,09,06,18.40
2010,08,18,09,07,18.50
2010,08,18,09,08,18.60
2010,08,18,09,09,18.60
2010,08,18,09,10,18.60
2010,08,18,09,11,18.60
2010,08,18,09,12,18.60
2010,08,18,09,13,18.60
2010,08,18,09,14,18.60
2010,08,18,09,15,18.50
2010,08,18,09,16,18.40
2010,08,18,09,17,18.30
2010,08,18,09,18,18.30
2010,08,18,09,19,18.30
2010,08,18,09,20,18.20
2010,08,18,09,21,18.20
2010,08,18,09,22,18.20
2010,08,18,09,23,18.20
2010,08,18,09,24,18.20
2010,08,18,09,25,18.30
2010,08,18,09,26,18.30
2010,08,18,09,27,18.50
2010,08,18,09,28,18.60
2010,08,18,09,29,18.70
2010,08,18,09,30,18.80
2010,08,18,09,31,18.80
2010,08,18,09,32,18.90
2010,08,18,09,33,18.90
2010,08,18,09,34,19.00
2010,08,18,09,35,19.00
2010,08,18,09,36,19.10
2010,08,18,09,37,19.10
2010,08,18,09,38,19.20
2010,08,18,09,39,19.30
2010,08,18,09,40,19.30
2010,08,18,09,41,19.30
2010,08,18,09,42,19.20
2010,08,18,09,43,19.20
2010,08,18,09,44,19.10
2010,08,18,09,45,18.90
2010,08,18,09,46,18.90
2010,08,18,09,47,18.90
2010,08,18,09,48,18.90
2010,08,18,09,49,18.90
2010,08,18,09,50,19.00
2010,08,18,09,51,19.10
2010,08,18,09,52,19.10
2010,08,18,09,53,19.20
2010,08,18,09,54,19.20
2010,08,18,09,55,19.20
2010,08,18,09,56,19.20
2010,08,18,09,57,19.20
2010,08,18,09,58,19.10
2010,08,18,09,59,19.00
2010,08,18,10,00,19.00
2010,08,18,10,01,18.90
2010,08,18,10,02,18.90
2010,08,18,10,03,19.00
2010,08,18,10,04,19.00
2010,08,18,10,05,19.00
2010,08,18,10,06,19.10
2010,08,18,10,07,19.10
2010,08,18,10,08,19.10
2010,08,18,10,09,19.10
2010,08,18,10,10,19.10
2010,08,18,10,11,19.10
2010,08,18,10,12,19.10
2010,08,18,10,13,19.10
2010,08,18,10,14,19.20
2010,08,18,10,15,19.20
2010,08,18,10,16,19.20
2010,08,18,10,17,19.20
2010,08,18,10,18,19.20
2010,08,18,10,19,19.30
2010,08,18,10,20,19.20
2010,08,18,10,21,19.20
2010,08,18,10,22,19.10
2010,08,18,10,23,19.10
2010,08,18,10,24,19.10
2010,08,18,10,25,19.00
2010,08,18,10,26,19.00
2010,08,18,10,27,19.10
2010,08,18,10,28,19.00
2010,08,18,10,29,19.00
2010,08,18,10,30,18.90
2010,08,18,10,31,18.80
2010,08,18,10,32,18.70
2010,08,18,10,33,18.60
2010,08,18,10,34,18.60
2010,08,18,10,35,18.50
2010,08,18,10,36,18.50
2010,08,18,10,37,18.60
2010,08,18,10,38,18.60
2010,08,18,10,39,18.60
2010,08,18,10,40,18.60
2010,08,18,10,41,18.70
2010,08,18,10,42,18.80
2010,08,18,10,43,18.80
2010,08,18,10,44,18.90
2010,08,18,10,45,18.90
2010,08,18,10,46,18.90
2010,08,18,10,47,19.00
2010,08,18,10,48,19.00
2010,08,18,10,49,19.10
2010,08,18,10,50,19.10
2010,08,18,10,51,19.10
2010,08,18,10,52,19.10
2010,08,18,10,53,19.10
2010,08,18,10,54,19.10
2010,08,18,10,55,19.10
2010,08,18,10,56,19.10
2010,08,18,10,57,19.10
2010,08,18,10,58,19.20
2010,08,18,10,59,19.20
2010,08,18,11,00,19.30
2010,08,18,11,01,19.30
2010,08,18,11,02,19.30
2010,08,18,11,03,19.30
2010,08,18,11,04,19.30
2010,08,18,11,05,19.30
2010,08,18,11,06,19.30
2010,08,18,11,07,19.40
2010,08,18,11,08,19.50
2010,08,18,11,09,19.50
2010,08,18,11,10,19.50
2010,08,18,11,11,19.50
2010,08,18,11,12,19.50
2010,08,18,11,13,19.40
2010,08,18,11,14,19.30
2010,08,18,11,15,19.30
2010,08,18,11,16,19.30
2010,08,18,11,17,19.30
2010,08,18,11,18,19.40
2010,08,18,11,19,19.30
2010,08,18,11,20,19.30
2010,08,18,11,21,19.30
2010,08,18,11,22,19.30
2010,08,18,11,23,19.30
2010,08,18,11,24,19.40
2010,08,18,11,25,19.50
2010,08,18,11,26,19.70
2010,08,18,11,27,19.80
2010,08,18,11,28,19.90
2010,08,18,11,29,20.10
2010,08,18,11,30,20.20
2010,08,18,11,31,20.20
2010,08,18,11,32,20.30
2010,08,18,11,33,20.30
2010,08,18,11,34,20.30
2010,08,18,11,35,20.30
2010,08,18,11,36,20.20
2010,08,18,11,37,20.10
2010,08,18,11,38,20.00
2010,08,18,11,39,20.00
2010,08,18,11,40,19.90
2010,08,18,11,41,19.90
2010,08,18,11,42,19.90
2010,08,18,11,43,20.00
2010,08,18,11,44,20.00
2010,08,18,11,45,20.00
2010,08,18,11,46,20.00
2010,08,18,11,47,20.00
2010,08,18,11,48,19.90
2010,08,18,11,49,19.80
2010,08,18,11,50,19.80
2010,08,18,11,51,19.60
2010,08,18,11,52,19.60
2010,08,18,11,53,19.50
2010,08,18,11,54,19.50
2010,08,18,11,55,19.60
2010,08,18,11,56,19.60
2010,08,18,11,57,19.60
2010,08,18,11,58,19.50
2010,08,18,11,59,19.60
2010,08,18,12,00,19.60
2010,08,18,12,01,19.60
2010,08,18,12,02,19.60
2010,08,18,12,03,19.60
2010,08,18,12,04,19.50
2010,08,18,12,05,19.50
2010,08,18,12,06,19.60
2010,08,18,12,07,19.70
2010,08,18,12,08,19.80
2010,08,18,12,09,19.90
2010,08,18,12,10,19.90
2010,08,18,12,11,19.80
2010,08,18,12,12,19.70
2010,08,18,12,13,19.60
2010,08,18,12,14,19.40
2010,08,18,12,15,19.50
2010,08,18,12,16,19.50
2010,08,18,12,17,19.60
2010,08,18,12,18,19.50
2010,08,18,12,19,19.50
2010,08,18,12,20,19.50
2010,08,18,12,21,19.50
2010,08,18,12,22,19.40
2010,08,18,12,23,19.40
2010,08,18,12,24,19.40
2010,08,18,12,25,19.30
2010,08,18,12,26,19.30
2010,08,18,12,27,19.40
2010,08,18,12,28,19.40
2010,08,18,12,29,19.50
2010,08,18,12,30,19.50
2010,08,18,12,31,19.60
2010,08,18,12,32,19.60
2010,08,18,12,33,19.80
2010,08,18,12,34,19.80
2010,08,18,12,35,19.90
2010,08,18,12,36,19.90
2010,08,18,12,37,19.90
2010,08,18,12,38,19.90
2010,08,18,12,39,20.00
2010,08,18,12,40,20.00
2010,08,18,12,41,20.00
2010,08,18,12,42,19.90
2010,08,18,12,43,19.90
2010,08,18,12,44,20.00
2010,08,18,12,45,20.00
2010,08,18,12,46,19.90
2010,08,18,12,47,19.80
2010,08,18,12,48,19.70
2010,08,18,12,49,19.70
2010,08,18,12,50,19.80
2010,08,18,12,51,19.90
2010,08,18,12,52,20.00
2010,08,18,12,53,20.10
2010,08,18,12,54,20.20
2010,08,18,12,55,20.20
2010,08,18,12,56,20.20
2010,08,18,12,57,20.20
2010,08,18,12,58,20.20
2010,08,18,12,59,20.20
2010,08,18,13,00,20.10
2010,08,18,13,01,19.90
2010,08,18,13,02,19.90
2010,08,18,13,03,19.80
2010,08,18,13,04,19.80
2010,08,18,13,05,19.70
2010,08,18,13,06,19.70
2010,08,18,13,07,19.70
2010,08,18,13,08,19.60
2010,08,18,13,09,19.50
2010,08,18,13,10,19.50
2010,08,18,13,11,19.50
2010,08,18,13,12,19.50
2010,08,18,13,13,19.60
2010,08,18,13,14,19.70
2010,08,18,13,15,19.80
2010,08,18,13,16,19.80
2010,08,18,13,17,19.90
2010,08,18,13,18,19.80
2010,08,18,13,19,19.70
2010,08,18,13,20,19.60
2010,08,18,13,21,19.60
2010,08,18,13,22,19.60
2010,08,18,13,23,19.50
2010,08,18,13,24,19.60
2010,08,18,13,25,19.50
2010,08,18,13,26,19.50
2010,08,18,13,27,19.60
2010,08,18,13,28,19.50
2010,08,18,13,29,19.40
2010,08,18,13,30,19.30
2010,08,18,13,31,19.30
2010,08,18,13,32,19.30
2010,08,18,13,33,19.40
2010,08,18,13,34,19.40
2010,08,18,13,35,19.40
2010,08,18,13,36,19.40
2010,08,18,13,37,19.40
2010,08,18,13,38,19.40
2010,08,18,13,39,19.30
2010,08,18,13,40,19.30
2010,08,18,13,41,19.30
2010,08,18,13,42,19.20
2010,08,18,13,43,19.20
2010,08,18,13,44,19.10
2010,08,18,13,45,19.10
2010,08,18,13,46,19.20
2010,08,18,13,47,19.30
2010,08,18,13,48,19.40
2010,08,18,13,49,19.40
2010,08,18,13,50,19.40
2010,08,18,13,51,19.40
2010,08,18,13,52,19.30
2010,08,18,13,53,19.30
2010,08,18,13,54,19.40
2010,08,18,13,55,19.40
2010,08,18,13,56,19.40
2010,08,18,13,57,19.40
2010,08,18,13,58,19.40
2010,08,18,13,59,19.40
2010,08,18,14,00,19.40
2010,08,18,14,01,19.40
2010,08,18,14,02,19.50
2010,08,18,14,03,19.40
2010,08,18,14,04,19.40
2010,08,18,14,05,19.40
2010,08,18,14,06,19.40
2010,08,18,14,07,19.40
2010,08,18,14,08,19.50
2010,08,18,14,09,19.60
2010,08,18,14,10,19.60
2010,08,18,14,11,19.60
2010,08,18,14,12,19.60
2010,08,18,14,13,19.60
2010,08,18,14,14,19.60
2010,08,18,14,15,19.60
2010,08,18,14,16,19.60
2010,08,18,14,17,19.60
2010,08,18,14,18,19.60
2010,08,18,14,19,19.60
2010,08,18,14,20,19.50
2010,08,18,14,21,19.50
2010,08,18,14,22,19.60
2010,08,18,14,23,19.60
2010,08,18,14,24,19.70
2010,08,18,14,25,19.70
2010,08,18,14,26,19.70
2010,08,18,14,27,19.70
2010,08,18,14,28,19.70
2010,08,18,14,29,19.60
2010,08,18,14,30,19.50
2010,08,18,14,31,19.40
2010,08,18,14,32,19.30
2010,08,18,14,33,19.20
2010,08,18,14,34,19.20
2010,08,18,14,35,19.20
2010,08,18,14,36,19.20
2010,08,18,14,37,19.30
2010,08,18,14,38,19.40
2010,08,18,14,39,19.40
2010,08,18,14,40,19.50
2010,08,18,14,41,19.60
2010,08,18,14,42,19.60
2010,08,18,14,43,19.60
2010,08,18,14,44,19.50
2010,08,18,14,45,19.50
2010,08,18,14,46,19.50
2010,08,18,14,47,19.50
2010,08,18,14,48,19.50
2010,08,18,14,49,19.60
2010,08,18,14,50,19.50
2010,08,18,14,51,19.50
2010,08,18,14,52,19.60
2010,08,18,14,53,19.70
2010,08,18,14,54,19.70
2010,08,18,14,55,19.70
2010,08,18,14,56,19.70
2010,08,18,14,57,19.60
2010,08,18,14,58,19.60
2010,08,18,14,59,19.60
2010,08,18,15,00,19.60
2010,08,18,15,01,19.70
2010,08,18,15,02,19.60
2010,08,18,15,03,19.60
2010,08,18,15,04,19.60
2010,08,18,15,05,19.60
2010,08,18,15,06,19.60
2010,08,18,15,07,19.60
2010,08,18,15,08,19.60
2010,08,18,15,09,19.50
2010,08,18,15,10,19.40
2010,08,18,15,11,19.30
2010,08,18,15,12,19.20
2010,08,18,15,13,19.20
2010,08,18,15,14,19.30
2010,08,18,15,15,19.30
2010,08,18,15,16,19.30
2010,08,18,15,17,19.30
2010,08,18,15,18,19.30
2010,08,18,15,19,19.30
2010,08,18,15,20,19.20
2010,08,18,15,21,19.20
2010,08,18,15,22,19.30
2010,08,18,15,23,19.40
2010,08,18,15,24,19.50
2010,08,18,15,25,19.70
2010,08,18,15,26,19.70
2010,08,18,15,27,19.80
2010,08,18,15,28,19.70
2010,08,18,15,29,19.60
2010,08,18,15,30,19.60
2010,08,18,15,31,19.50
2010,08,18,15,32,19.50
2010,08,18,15,33,19.50
2010,08,18,15,34,19.50
2010,08,18,15,35,19.60
2010,08,18,15,36,19.60
2010,08,18,15,37,19.70
2010,08,18,15,38,19.70
2010,08,18,15,39,19.70
2010,08,18,15,40,19.70
2010,08,18,15,41,19.70
2010,08,18,15,42,19.70
2010,08,18,15,43,19.70
2010,08,18,15,44,19.70
2010,08,18,15,45,19.80
2010,08,18,15,46,19.80
2010,08,18,15,47,19.80
2010,08,18,15,48,19.80
2010,08,18,15,49,19.90
2010,08,18,15,50,19.80
2010,08,18,15,51,19.80
2010,08,18,15,52,19.70
2010,08,18,15,53,19.70
2010,08,18,15,54,19.70
2010,08,18,15,55,19.80
2010,08,18,15,56,19.80
2010,08,18,15,57,19.90
2010,08,18,15,58,19.90
2010,08,18,15,59,19.90
2010,08,18,16,00,20.00
2010,08,18,16,01,20.00
2010,08,18,16,02,20.00
2010,08,18,16,03,20.00
2010,08,18,16,04,20.00
2010,08,18,16,05,19.90
2010,08,18,16,06,19.90
2010,08,18,16,07,19.90
2010,08,18,16,08,19.90
2010,08,18,16,09,19.90
2010,08,18,16,10,19.90
2010,08,18,16,11,19.90
2010,08,18,16,12,19.90
2010,08,18,16,13,19.90
2010,08,18,16,14,19.90
2010,08,18,16,15,19.90
2010,08,18,16,16,19.80
2010,08,18,16,17,19.80
2010,08,18,16,18,19.70
2010,08,18,16,19,19.70
2010,08,18,16,20,19.70
2010,08,18,16,21,19.70
2010,08,18,16,22,19.70
2010,08,18,16,23,19.70
2010,08,18,16,24,19.80
2010,08,18,16,25,19.80
2010,08,18,16,26,19.80
2010,08,18,16,27,19.90
2010,08,18,16,28,19.90
2010,08,18,16,29,20.00
2010,08,18,16,30,20.00
2010,08,18,16,31,20.10
2010,08,18,16,32,20.00
2010,08,18,16,33,20.00
2010,08,18,16,34,19.90
2010,08,18,16,35,19.90
2010,08,18,16,36,19.80
2010,08,18,16,37,19.80
2010,08,18,16,38,19.80
2010,08,18,16,39,19.70
2010,08,18,16,40,19.70
2010,08,18,16,41,19.70
2010,08,18,16,42,19.80
2010,08,18,16,43,19.80
2010,08,18,16,44,19.80
2010,08,18,16,45,19.90
2010,08,18,16,46,19.80
2010,08,18,16,47,19.80
2010,08,18,16,48,19.80
2010,08,18,16,49,19.80
2010,08,18,16,50,19.70
2010,08,18,16,51,19.70
2010,08,18,16,52,19.80
2010,08,18,16,53,19.80
2010,08,18,16,54,19.80
2010,08,18,16,55,19.80
2010,08,18,16,56,19.80
2010,08,18,16,57,19.80
2010,08,18,16,58,19.80
2010,08,18,16,59,19.80
2010,08,18,17,00,19.80
2010,08,18,17,01,19.80
2010,08,18,17,02,19.80
2010,08,18,17,03,19.80
2010,08,18,17,04,19.80
2010,08,18,17,05,19.80
2010,08,18,17,06,19.80
2010,08,18,17,07,19.70
2010,08,18,17,08,19.70
2010,08,18,17,09,19.60
2010,08,18,17,10,19.60
2010,08,18,17,11,19.50
2010,08,18,17,12,19.50
2010,08,18,17,13,19.50
2010,08,18,17,14,19.50
2010,08,18,17,15,19.60
2010,08,18,17,16,19.60
2010,08,18,17,17,19.60
2010,08,18,17,18,19.70
2010,08,18,17,19,19.70